| time (UTC) | temp C | wind direction | speed KPH | gust KPH | rain 1hr cm | rain 24hr cm | rain mn cm | humidity % | barometer mb |
| 20260508025536 | 3 | 180 | 0.0 | 0.0 | 0.00 | 0.00 | 0.00 | 87 | 1016.2 |
| 20260508024541 | 3 | 180 | 0.0 | 0.0 | 0.00 | 0.00 | 0.00 | 87 | 1016.2 |
| 20260508022400 | 3 | 180 | 0.0 | 0.0 | 0.00 | 0.00 | 0.00 | 86 | 1016.2 |
| 20260508020214 | 4 | 180 | 0.0 | 0.0 | 0.00 | 0.00 | 0.00 | 86 | 1016.3 |
| 20260508015139 | 4 | 180 | 0.0 | 0.0 | 0.00 | 0.00 | 0.00 | 86 | 1016.2 |
| 20260508014119 | 4 | 180 | 0.0 | 0.0 | 0.00 | 0.00 | 0.00 | 86 | 1016.0 |
| 20260508013136 | 5 | 180 | 0.0 | 0.0 | 0.00 | 0.00 | 0.00 | 86 | 1016.1 |
| 20260508012132 | 5 | 180 | 0.0 | 0.0 | 0.00 | 0.00 | 0.00 | 86 | 1016.1 |
| 20260508011132 | 5 | 180 | 0.0 | 0.0 | 0.00 | 0.00 | 0.00 | 85 | 1016.2 |
| 20260508004957 | 5 | 180 | 0.0 | 0.0 | 0.00 | 0.00 | 0.00 | 85 | 1016.2 |
| 20260508002915 | 6 | 180 | 0.0 | 0.0 | 0.00 | 0.00 | 0.00 | 85 | 1016.3 |
| 20260508001843 | 6 | 180 | 0.0 | 0.0 | 0.00 | 0.00 | 0.00 | 85 | 1016.4 |
| 20260508000838 | 6 | 180 | 0.0 | 0.0 | 0.00 | 0.00 | 0.00 | 85 | 1016.4 |
| 20260507235821 | 7 | 180 | 0.0 | 0.0 | 0.00 | 0.00 | 0.00 | 85 | 1016.5 |
| 20260507234806 | 7 | 180 | 0.0 | 0.0 | 0.00 | 0.00 | 0.00 | 85 | 1016.6 |
| 20260507233823 | 7 | 180 | 0.0 | 0.0 | 0.00 | 0.00 | 0.00 | 85 | 1016.6 |
| 20260507230609 | 8 | 182 | 0.0 | 3.2 | 0.00 | 0.00 | 0.00 | 85 | 1016.7 |
| 20260507225543 | 8 | 183 | 1.6 | 6.4 | 0.00 | 0.00 | 0.00 | 84 | 1016.7 |
| 20260507224537 | 8 | 187 | 1.6 | 6.4 | 0.00 | 0.00 | 0.00 | 84 | 1016.7 |
| 20260507223507 | 9 | 196 | 0.0 | 4.8 | 0.00 | 0.00 | 0.00 | 84 | 1016.7 |
| 20260507222500 | 9 | 150 | 1.6 | 6.4 | 0.00 | 0.00 | 0.00 | 84 | 1016.7 |
| 20260507220349 | 10 | 153 | 3.2 | 8.0 | 0.00 | 0.00 | 0.00 | 82 | 1016.6 |
| 20260507215347 | 10 | 167 | 3.2 | 9.7 | 0.00 | 0.00 | 0.00 | 82 | 1016.6 |
| 20260507212042 | 10 | 147 | 9.7 | 17.7 | 0.00 | 0.00 | 0.00 | 80 | 1016.4 |
| 20260507211045 | 10 | 134 | 8.0 | 16.1 | 0.00 | 0.00 | 0.00 | 80 | 1016.4 |
| 20260507204930 | 10 | 143 | 4.8 | 12.9 | 0.00 | 0.00 | 0.00 | 79 | 1016.4 |
| 20260507203935 | 10 | 156 | 3.2 | 12.9 | 0.00 | 0.00 | 0.00 | 79 | 1016.4 |
| 20260507202952 | 10 | 148 | 3.2 | 11.3 | 0.00 | 0.00 | 0.00 | 79 | 1016.2 |
| 20260507202006 | 10 | 142 | 3.2 | 11.3 | 0.00 | 0.00 | 0.00 | 78 | 1016.0 |
| 20260507194742 | 11 | 140 | 6.4 | 11.3 | 0.00 | 0.00 | 0.00 | 77 | 1015.9 |
| 20260507193714 | 11 | 147 | 6.4 | 17.7 | 0.00 | 0.00 | 0.00 | 76 | 1015.8 |
| 20260507192717 | 11 | 138 | 6.4 | 17.7 | 0.00 | 0.00 | 0.00 | 76 | 1015.8 |
| 20260507191654 | 11 | 136 | 6.4 | 17.7 | 0.00 | 0.00 | 0.00 | 76 | 1015.7 |
| 20260507190630 | 11 | 150 | 6.4 | 14.5 | 0.00 | 0.00 | 0.00 | 76 | 1015.7 |
| 20260507185600 | 11 | 153 | 6.4 | 14.5 | 0.00 | 0.00 | 0.00 | 75 | 1015.8 |
| 20260507184622 | 11 | 144 | 8.0 | 22.5 | 0.00 | 0.00 | 0.00 | 74 | 1015.7 |
| 20260507183622 | 11 | 148 | 8.0 | 22.5 | 0.00 | 0.00 | 0.00 | 74 | 1015.7 |
| 20260507182607 | 11 | 133 | 11.3 | 19.3 | 0.00 | 0.00 | 0.00 | 73 | 1015.6 |
| 20260507175307 | 12 | 144 | 9.7 | 20.9 | 0.00 | 0.00 | 0.00 | 71 | 1015.4 |
| 20260507174319 | 12 | 143 | 8.0 | 17.7 | 0.00 | 0.00 | 0.00 | 69 | 1015.4 |
| 20260507173336 | 12 | 191 | 8.0 | 17.7 | 0.00 | 0.00 | 0.00 | 69 | 1015.3 |
| 20260507172318 | 12 | 165 | 9.7 | 22.5 | 0.00 | 0.00 | 0.00 | 69 | 1015.4 |
| 20260507170151 | 13 | 157 | 6.4 | 14.5 | 0.00 | 0.00 | 0.00 | 66 | 1015.3 |
| 20260507165126 | 13 | 165 | 8.0 | 16.1 | 0.00 | 0.00 | 0.00 | 66 | 1015.3 |
| 20260507164102 | 13 | 136 | 6.4 | 14.5 | 0.00 | 0.00 | 0.00 | 64 | 1015.3 |
| 20260507163113 | 13 | 168 | 6.4 | 14.5 | 0.00 | 0.00 | 0.00 | 65 | 1015.3 |
| 20260507162055 | 13 | 161 | 6.4 | 14.5 | 0.00 | 0.00 | 0.00 | 64 | 1015.3 |
| 20260507161117 | 13 | 135 | 6.4 | 14.5 | 0.00 | 0.00 | 0.00 | 65 | 1015.3 |
| 20260507160115 | 13 | 173 | 6.4 | 16.1 | 0.00 | 0.00 | 0.00 | 65 | 1015.3 |
| 20260507155119 | 13 | 134 | 6.4 | 19.3 | 0.00 | 0.00 | 0.00 | 66 | 1015.4 |
| 20260507154101 | 13 | 147 | 9.7 | 19.3 | 0.00 | 0.00 | 0.00 | 65 | 1015.4 |
| 20260507151845 | 14 | 178 | 0.0 | 3.2 | 0.00 | 0.00 | 0.00 | 58 | 1015.4 |
| 20260507150820 | 14 | 178 | 0.0 | 1.6 | 0.00 | 0.00 | 0.00 | 59 | 1015.4 |
| 20260507145838 | 14 | 194 | 0.0 | 4.8 | 0.00 | 0.00 | 0.00 | 59 | 1015.4 |
| 20260507144853 | 15 | 180 | 0.0 | 4.8 | 0.00 | 0.00 | 0.00 | 58 | 1015.5 |
| 20260507143856 | 15 | 231 | 0.0 | 4.8 | 0.00 | 0.00 | 0.00 | 59 | 1015.5 |
| 20260507142841 | 15 | 254 | 0.0 | 4.8 | 0.00 | 0.00 | 0.00 | 58 | 1015.5 |
| 20260507141849 | 15 | 180 | 1.6 | 4.8 | 0.00 | 0.00 | 0.00 | 56 | 1015.5 |
| 20260507140910 | 15 | 251 | 1.6 | 4.8 | 0.00 | 0.00 | 0.00 | 59 | 1015.6 |
| 20260507135917 | 14 | 177 | 0.0 | 0.0 | 0.00 | 0.00 | 0.00 | 60 | 1015.7 |
| 20260507134933 | 14 | 176 | 0.0 | 0.0 | 0.00 | 0.00 | 0.00 | 59 | 1015.7 |
| 20260507133936 | 14 | 173 | 1.6 | 8.0 | 0.00 | 0.00 | 0.00 | 58 | 1015.7 |
| 20260507131819 | 15 | 266 | 1.6 | 9.7 | 0.00 | 0.00 | 0.00 | 56 | 1015.7 |
| 20260507130806 | 15 | 253 | 3.2 | 9.7 | 0.00 | 0.00 | 0.00 | 57 | 1015.8 |
| 20260507125819 | 15 | 142 | 3.2 | 11.3 | 0.00 | 0.00 | 0.00 | 56 | 1015.8 |
| 20260507123702 | 13 | 134 | 1.6 | 16.1 | 0.00 | 0.00 | 0.00 | 61 | 1015.8 |
| 20260507122652 | 13 | 188 | 3.2 | 16.1 | 0.00 | 0.00 | 0.00 | 63 | 1015.9 |
| 20260507121643 | 13 | 239 | 0.0 | 11.3 | 0.00 | 0.00 | 0.00 | 62 | 1015.9 |
| 20260507120611 | 13 | 244 | 3.2 | 11.3 | 0.00 | 0.00 | 0.00 | 63 | 1016.0 |
| 20260507115605 | 13 | 145 | 3.2 | 8.0 | 0.00 | 0.00 | 0.00 | 62 | 1016.1 |
| 20260507113525 | 14 | 111 | 6.4 | 16.1 | 0.00 | 0.00 | 0.00 | 59 | 1016.1 |
| 20260507112529 | 15 | 140 | 4.8 | 16.1 | 0.00 | 0.00 | 0.00 | 57 | 1016.1 |
| 20260507111512 | 15 | 215 | 6.4 | 16.1 | 0.00 | 0.00 | 0.00 | 61 | 1016.1 |
| 20260507110505 | 14 | 136 | 4.8 | 16.1 | 0.00 | 0.00 | 0.00 | 61 | 1016.2 |
| 20260507105442 | 14 | 144 | 6.4 | 14.5 | 0.00 | 0.00 | 0.00 | 61 | 1016.3 |
| 20260507104452 | 14 | 188 | 4.8 | 12.9 | 0.00 | 0.00 | 0.00 | 62 | 1016.3 |
| 20260507103510 | 14 | 155 | 4.8 | 12.9 | 0.00 | 0.00 | 0.00 | 61 | 1016.4 |
| 20260507102442 | 13 | 155 | 4.8 | 12.9 | 0.00 | 0.00 | 0.00 | 65 | 1016.4 |
| 20260507101452 | 12 | 136 | 3.2 | 12.9 | 0.00 | 0.00 | 0.00 | 65 | 1016.4 |
| 20260507100422 | 12 | 222 | 3.2 | 9.7 | 0.00 | 0.00 | 0.00 | 67 | 1016.4 |
| 20260507095425 | 12 | 191 | 4.8 | 12.9 | 0.00 | 0.00 | 0.00 | 69 | 1016.4 |
| 20260507094351 | 12 | 143 | 6.4 | 12.9 | 0.00 | 0.00 | 0.00 | 68 | 1016.5 |
| 20260507093321 | 12 | 127 | 6.4 | 12.9 | 0.00 | 0.00 | 0.00 | 68 | 1016.3 |
| 20260507092334 | 12 | 135 | 4.8 | 11.3 | 0.00 | 0.00 | 0.00 | 70 | 1016.3 |
| 20260507090134 | 11 | 147 | 6.4 | 11.3 | 0.00 | 0.00 | 0.00 | 70 | 1016.4 |
| 20260507085124 | 11 | 184 | 3.2 | 11.3 | 0.00 | 0.00 | 0.00 | 74 | 1016.4 |
| 20260507084120 | 11 | 184 | 1.6 | 8.0 | 0.00 | 0.00 | 0.00 | 73 | 1016.4 |
| 20260507083126 | 11 | 134 | 3.2 | 9.7 | 0.00 | 0.00 | 0.00 | 73 | 1016.4 |
| 20260507082059 | 11 | 169 | 4.8 | 12.9 | 0.00 | 0.00 | 0.00 | 72 | 1016.4 |
| 20260507081100 | 11 | 143 | 3.2 | 12.9 | 0.00 | 0.00 | 0.00 | 73 | 1016.4 |
| 20260507080122 | 11 | 159 | 4.8 | 12.9 | 0.00 | 0.00 | 0.00 | 75 | 1016.3 |
| 20260507075110 | 10 | 125 | 4.8 | 12.9 | 0.00 | 0.00 | 0.00 | 77 | 1016.3 |
| 20260507074103 | 10 | 169 | 3.2 | 11.3 | 0.00 | 0.00 | 0.00 | 80 | 1016.2 |
| 20260507073053 | 10 | 146 | 3.2 | 11.3 | 0.00 | 0.00 | 0.00 | 81 | 1016.1 |
| 20260507072115 | 9 | 150 | 3.2 | 11.3 | 0.00 | 0.00 | 0.00 | 80 | 1016.1 |
| 20260507071047 | 9 | 145 | 4.8 | 9.7 | 0.00 | 0.00 | 0.00 | 81 | 1016.0 |
| 20260507070048 | 8 | 136 | 4.8 | 9.7 | 0.00 | 0.00 | 0.00 | 83 | 1016.0 |
| 20260507065109 | 8 | 133 | 3.2 | 6.4 | 0.00 | 0.00 | 0.00 | 84 | 1016.0 |
| 20260507064127 | 8 | 147 | 3.2 | 6.4 | 0.00 | 0.00 | 0.00 | 86 | 1016.0 |
| 20260507061933 | 8 | 94 | 0.0 | 3.2 | 0.00 | 0.00 | 0.00 | 87 | 1016.0 |
| 20260507060925 | 8 | 62 | 0.0 | 0.0 | 0.00 | 0.03 | 0.00 | 87 | 1016.0 |
| 20260507055913 | 8 | 62 | 0.0 | 0.0 | 0.00 | 0.08 | 0.00 | 87 | 1015.9 |
| 20260507054925 | 8 | 61 | 0.0 | 0.0 | 0.00 | 0.08 | 0.00 | 87 | 1015.7 |
| 20260507053909 | 8 | 61 | 0.0 | 0.0 | 0.00 | 0.08 | 0.00 | 87 | 1015.7 |
| 20260507052853 | 7 | 61 | 0.0 | 0.0 | 0.00 | 0.08 | 0.00 | 87 | 1015.6 |
| 20260507051911 | 7 | 61 | 0.0 | 0.0 | 0.00 | 0.08 | 0.00 | 87 | 1015.5 |
| 20260507050902 | 7 | 61 | 0.0 | 0.0 | 0.00 | 0.08 | 0.00 | 87 | 1015.4 |
| 20260507044757 | 7 | 61 | 0.0 | 0.0 | 0.00 | 0.08 | 0.00 | 87 | 1015.4 |
| 20260507043754 | 7 | 61 | 0.0 | 0.0 | 0.00 | 0.08 | 0.00 | 87 | 1015.4 |
| 20260507042811 | 7 | 61 | 0.0 | 0.0 | 0.00 | 0.08 | 0.00 | 87 | 1015.3 |
| 20260507041816 | 7 | 61 | 0.0 | 0.0 | 0.00 | 0.08 | 0.00 | 87 | 1015.2 |
| 20260507040815 | 7 | 61 | 0.0 | 0.0 | 0.00 | 0.08 | 0.00 | 87 | 1015.2 |
| 20260507035828 | 7 | 61 | 0.0 | 0.0 | 0.00 | 0.08 | 0.00 | 87 | 1015.1 |
| 20260507034831 | 7 | 65 | 0.0 | 0.0 | 0.00 | 0.08 | 0.00 | 87 | 1015.2 |
| 20260507033839 | 7 | 65 | 0.0 | 0.0 | 0.00 | 0.08 | 0.00 | 87 | 1015.1 |
| 20260507032826 | 7 | 65 | 0.0 | 0.0 | 0.00 | 0.08 | 0.00 | 87 | 1015.1 |